Tracking 25953 objects as of 15-Aug-2022
HD Live streaming from Space Station
objects crossing your sky now

COSMOS 2228

Track COSMOS 2228 now!
10-day predictions
COSMOS 2228 is classified as:


NORAD ID: 22286
Int'l Code: 1992-094A
Perigee: 594.5 km
Apogee: 622.9 km
Inclination: 82.5 °
Period: 96.7 minutes
Semi major axis: 6979 km
RCS: 5.331 m2 (large)
Launch date: December 25, 1992
Source: Commonwealth of Independent States (former USSR) (CIS)
Launch site: PLESETSK MISSILE AND SPACE COMPLEX (PKMTR)
aabbcc
Your satellite tracking list
Your tracking list is empty




NASA's NSSDC Master Catalog

Two Line Element Set (TLE):
1 22286U 92094A   22226.98254955  .00000708  00000-0  72688-4 0  9995
2 22286  82.5192  35.5056 0020355 345.1880  14.8738 14.88832960602803
Source of the keplerian elements: AFSPC